Regional Weather Roundup
Issued by NWS

Home | Current Version | Previous Version | Graphics & Text | Print | Product List | Glossary On
Versions: 1 2 3 4 5 6 7 8 9 10 11 12 13 14 15 16 17 18 19 20 21 22 23 24 25 26 27
000
ASUS45 KSLC 240510
RWRUT

UTAH REGIONAL WEATHER ROUNDUP
NATIONAL WEATHER SERVICE SALT LAKE CITY UT
1100 PM MDT FRI JUN 23 2017

UTZ001>011-023>025-240600-

NORTHERN UTAH

CITY           SKY/WX    TMP DP  RH WIND       PRES   REMARKS
BRIGHAM CITY   CLEAR     72  41  32 CALM      30.17R
HILL AFB       CLEAR     66  37  34 E12       30.18R
LOGAN          CLEAR     64  37  36 NW5       30.18R
OGDEN          CLEAR     66  41  40 S6        30.16R
SALT LAKE CITY CLEAR     74  39  28 SE3       30.14R
TOOELE VALLEY  CLEAR     59  32  36 S9        30.16S
WENDOVER         N/A     77  27  15 NE6       30.16R
HEBER CITY     CLEAR     57  32  38 CALM      30.24R
WEST JORDAN    CLEAR     69  42  37 NW3       30.18R

$$

UTZ011>015-024>027-240600-

CENTRAL/NORTHEAST UTAH

CITY           SKY/WX    TMP DP  RH WIND       PRES   REMARKS
PROVO AIRPORT  CLEAR     67  35  30 E3        30.17R
MOAB/CANYONLAN CLEAR     80  20  10 NW13      30.03R
DELTA          CLEAR     72  21  15 NE9       30.15R
PRICE          CLEAR     73  22  14 NW13G22   30.19R
RICHFIELD      CLEAR     68  27  21 NW2       30.20R
ROOSEVELT      CLEAR     72  23  16 NW8       30.15R
VERNAL         CLEAR     73  29  19 CALM      30.14R

$$

UTZ013>016-019>022-027-240600-

SOUTHERN UTAH

CITY           SKY/WX    TMP DP  RH WIND       PRES   REMARKS
BRYCE CANYON   CLEAR     51  22  31 CALM      30.34R
CEDAR CITY     CLEAR     67  26  21 N8        30.16R
MILFORD        CLEAR     72  20  14 N10       30.14R
ST GEORGE      CLEAR     96  26   8 NE15      29.86R HX  90
HANKSVILLE     CLEAR     75  18  11 W5        30.07S
KANAB          CLEAR     81  28  15 NW15      30.11R
BLANDING       CLEAR     67  29  23 N9        30.21R

$$

REGIONAL REPORTS     COLORADO/ARIZONA

CITY           SKY/WX    TMP DP  RH WIND       PRES   REMARKS
CRAIG, CO      CLEAR     56  36  47 CALM      30.23R
GRAND JUNCTION CLEAR     78  15   9 CALM      30.06R
RIFLE, CO      CLEAR     65  26  23 SE6       30.16R
MONTROSE, CO   CLEAR     66  31  27 SE9       30.16R
CORTEZ, CO     CLEAR     62  32  32 NE8       30.15R
COLORADO CITY    N/A     70  34  26 CALM      30.09R
PAGE, AZ       MOCLDY    87  20   8 CALM      30.00R
GRAND CANYON   CLEAR     60  28  29 CALM      30.23R
KINGMAN, AZ    CLEAR     91  37  15 SW14      29.95R
FLAGSTAFF, AZ  PTCLDY    68  29  23 CALM      30.26R

$$

REGIONAL REPORTS    NEVADA/IDAHO/WYOMING

CITY           SKY/WX    TMP DP  RH WIND       PRES   REMARKS
LAS VEGAS, NV  PTCLDY   101  25   7 W6        29.78R HX  94
ELY, NY        CLEAR     65  18  16 W5        30.26R
ELKO, NV       CLEAR     69  28  21 E6        30.21R
POCATELLO, ID  CLEAR     58  38  47 CALM      30.20R
BURLEY, ID     CLEAR     58  45  62 SW6       30.18R
FORT BRIDGER,    N/A     60  28  29 W3        30.37R
EVANSTON, WY   CLEAR     62  31  31 N6        30.34R
ROCK SPRINGS,  CLEAR     57  30  35 NE12      30.32R
KEMMERER, WY     N/A     54  28  37 NW13      30.35S

$$




USA.gov is the U.S. government's official web portal to all federal, state and local government web resources and services.